Location: Orange
(33.2833°S, 149.1000°E)
Time: 17:55:01
(UTC+10:00)

X-37B - Visible Passes

Search period start: 15 May 2021 00:00
Search period end: 25 May 2021 00:00
Orbit: 386 x 389 km, 45.0° (Epoch: 08 May)

Date Brightness Start Highest point End Pass type
(mag) Time Alt. Az. Time Alt. Az. Time Alt. Az.
15 May 3.3 05:25:23 10° S 05:25:23 10° S 05:26:02 10° S visible
16 May 3.1 06:02:54 10° SSW 06:04:19 12° S 06:05:44 10° SE visible
17 May 3.5 05:06:15 10° SSE 05:06:15 10° SSE 05:06:24 10° SSE visible
18 May 3.0 05:42:50 12° SSW 05:44:29 16° SSE 05:46:32 10° SE visible
19 May 3.7 04:47:09 10° SE 04:47:09 10° SE 04:47:14 10° SE visible
19 May 1.8 06:20:04 10° SW 06:23:06 36° SSE 06:26:06 10° E visible
20 May 2.4 05:23:48 20° S 05:24:34 22° SSE 05:27:12 10° ESE visible
21 May 0.7 06:00:30 15° SW 06:03:01 73° SSE 06:06:12 10° ENE visible
22 May 1.9 05:04:57 35° SE 05:04:57 35° SE 05:07:35 10° E visible
23 May 1.0 05:41:46 33° W 05:42:50 49° NW 05:45:57 10° NE visible
24 May 3.1 04:46:21 23° ENE 04:46:21 23° ENE 04:47:42 10° ENE visible
24 May 3.1 06:19:56 10° WNW 06:20:45 11° NW 06:21:33 10° NNW visible
